This demonstration page uses our WeatherBlox Daily Observations layout. Learn more.

Left ArrowRight Arrow

41.86663, -103.66717

Hourly Observations for January 21, 2015

Temp ( °F °C ) Dew Point ( °F °C ) Humidity (%) Winds ( mph kmh ) Pressure ( in mb ) Visibility ( mi km ) Precip ( " mm )
12:53 am 00:53 Clear 18 -7.8 16 -8.9 92 92 NNW 5 7 30.29 1026 10 16 0.00 0.00
2:53 am 02:53 Clear 17 -8.3 14 -10 88 88 Calm 30.32 1027 10 16 0.00 0.00
3:53 am 03:53 Clear 17 -8.3 14 -10 88 88 NNW 6 9 30.32 1027 10 16 0.00 0.00
4:53 am 04:53 Clear 17 -8.3 14 -10 88 88 NW 6 9 30.35 1028 10 16 0.00 0.00
5:53 am 05:53 Clear 17 -8.3 14 -10 88 88 NW 7 11 30.35 1028 10 16 0.00 0.00
6:53 am 06:53 Clear 17 -8.3 13 -10.6 84 84 WNW 7 11 30.37 1028 10 16 0.00 0.00
7:53 am 07:53 Sunny 21 -6.1 16 -8.9 81 81 WNW 9 15 30.39 1029 10 16 0.00 0.00
8:53 am 08:53 Sunny 24 -4.4 18 -7.8 77 77 W 9 15 30.38 1029 10 16 0.00 0.00
9:53 am 09:53 Sunny 28 -2.2 20 -6.7 72 72 W 10 17 30.38 1029 10 16 0.00 0.00
10:39 am 10:39 Mostly Cloudy 31 -0.6 23 -5 72 72 WNW 10 17 30.39 1029 10 16 0.00 0.00
10:53 am 10:53 Partly Cloudy 32 0 23 -5 69 69 NW 16 26 30.37 1029 10 16 0.00 0.00
11:53 am 11:53 Mostly Cloudy 32 0 22 -5.6 66 66 NNW 18 30 30.37 1028 10 16 0.00 0.00
12:53 pm 12:53 Partly Cloudy 32 0 22 -5.6 66 66 NW 15 24 30.37 1028 10 16 0.00 0.00
1:53 pm 13:53 Partly Cloudy 32 0 22 -5.6 66 66 NNW 14 22 30.36 1028 10 16 0.00 0.00
2:53 pm 14:53 Mostly Cloudy 33 0.6 20 -6.7 58 58 NNW 15 24 30.37 1029 10 16 0.00 0.00
3:53 pm 15:53 Mostly Sunny 32 0 19 -7.2 59 59 NNW 15 24 30.39 1029 10 16 0.00 0.00
4:53 pm 16:53 Sunny 29 -1.7 17 -8.3 61 61 NNW 14 22 30.40 1030 10 16 0.00 0.00
5:53 pm 17:53 Clear 23 -5 16 -8.9 74 74 NNW 7 11 30.45 1031 10 16 0.00 0.00
6:53 pm 18:53 Clear 22 -5.6 16 -8.9 78 78 Calm 30.47 1032 10 16 0.00 0.00
7:53 pm 19:53 Clear 19 -7.2 15 -9.4 84 84 Calm 30.48 1032 10 16 0.00 0.00
8:53 pm 20:53 Clear 15 -9.4 11 -11.7 84 84 NE 5 7 30.48 1032 10 16 0.00 0.00
9:53 pm 21:53 Clear 19 -7.2 14 -10 81 81 Calm 30.46 1032 10 16 0.00 0.00
10:53 pm 22:53 Clear 15 -9.4 12 -11.1 88 88 NW 5 7 30.47 1032 10 16 0.00 0.00
11:53 pm 23:53 Clear 17 -8.3 14 -10 88 88 NW 6 9 30.45 1031 10 16 0.00 0.00

Powered by AerisWeather